STARLINK-4768, 53806

Orbit data source: Space-Track

STARLINK-4768, 53806 is a payload satellite owned by SpaceX/Seattle (US) in LEO that was launched on Sun, 11 Sep 2022 UTC via an FALCON 9 launch vehicle from the Air Force Eastern Test Range (AFETR). Payload-class satellites include a variety of spacecraft equipped with specific instruments for various scientific and technological missions. These include communications satellites like Starlink; space stations such as the ISS; scientific satellites like the Hubble; Earth observation satellites from companies like Planet Labs, Umbra, and HawkEye 360; GPS; miniature CubeSats for education and research; and military/defense satellites.

Loading next visibility...
Identifier
53806, 2022-111AK
Orbit
LEO
Country
Flag of USUS
Related business
Manufacturer
SpaceX/Seattle
Mission
Operational Commercial Communications
Bus & Motor
STARLINK, Unknown motor
Mass
305 kg wet, ~290 kg dry
Launch date (UTC)
2022-09-11 (4 years ago)
Launch vehicle
FALCON 9
Launch site
Air Force Eastern Test Range (AFETR)
Object type
Payload
Rocket body
Debris
Shape & HBR
Box + 1 Pan, 10.1 m
Radar Cross Section
13.562 m², Large (>1 m²)

Expand to show TLE details & history
Last TLE update: 1 day ago

TLE from 1 day ago
0 STARLINK-4768
1 53806U 22111AK  26262.94076169 -.00000897  00000-0 -14816-4 0  9999
2 53806  53.1605  88.6088 0001224  72.6001 287.5135 15.35395640223466
Epoch: 2026-09-19T22:34Z
TLE epoch observation values (Epoch: 2026-09-19T22:34:41.810Z)
Latitude
-0.00006°
Longitude
111.09246°
Altitude
460.396 km
Speed
7.638 km/s
True Right ascension
05h 54m 26s
True Declination
0° 00' 00"
Sunlit
Object was in daylight at epoch
Visualization orbit readout
Latitude
Unknown
Longitude
Unknown
Altitude
Unknown
Speed
Unknown
Apparent Right ascension
Unknown
Apparent Declination
Unknown
Sunlit
N/A
Visualization observer readout
Local Sidereal Time
18:18:08
Azimuth
Unknown
Elevation
Unknown
Doppler factor
Unknown
Orbital elements
Apogee altitude
460.839 km
Perigee altitude
459.166 km
Semi-major axis
6,838.139 km
Eccentricity
0.00012
Inclination
53.1605°
RAAN
88.6088°
Arg. of periapsis
72.6001°
True anomaly
287.50012°
Mean anomaly
287.5135°
Eccentric anomaly
287.50681°
Mean motion
3.83828 °/min
Orbital period
93.79 mins
BSTAR
-0.000014816
Loading maneuver chart data...
Computing Atmospheric mass density...
Loading historical data...
Loading historical data...
Loading historical data...
Loading historical data...
Loading historical data...
Loading historical data...
Loading historical data...

Documentation

Showing up to 5 results
|